Weather History for KNEW - June, 2013

Change the Weather History Date:

Friday, June 28, 2013

  Actual Average Record
Temperature  
Mean Temperature 88 °F 83 °F  
Max Temperature 95 °F 91 °F 97 °F (2009)
Min Temperature 80 °F 75 °F 58 °F (1974)
Degree Days  
Heating Degree Days 0 0  
Month to date heating degree days 0 0  
Since 1 June heating degree days 0 0  
Since 1 July heating degree days 1146 1280  
Cooling Degree Days 23 18  
Month to date cooling degree days 508 459  
Year to date cooling degree days 1001 1078  
Since 1 June cooling degree days 508 459  
Growing Degree Days 38 (Base 50)    
Moisture  
Dew Point 76 °F    
Average Humidity 69    
Maximum Humidity 91    
Minimum Humidity 46    
Precipitation  
Precipitation 0.00 in 0.26 in 3.98 in (1953)
Month to date precipitation 2.59 7.55  
Year to date precipitation 37.32 31.79  
Snow  
Snow 0.00 in - - ()
Month to date snowfall 0.0  
Since 1 June snowfall 0.0  
Since 1 July snowfall 0.0  
Snow Depth 0.00 in    
Sea Level Pressure  
Sea Level Pressure 29.87 in    
Wind  
Wind Speed 9 mph (West)    
Max Wind Speed 16 mph    
Max Gust Speed 21 mph    
Visibility 10 miles    
Events      
T = Trace of Precipitation, MM = Missing Value Source: NWS Daily Summary

Daily Weather History Graph

Daily Weather History Graph

Search for Another Location

Airport or City:

Trip Planner

Search our weather history database for the weather conditions in past years. The results will help you decide how hot, cold, wet, or windy it might be!

Date:

Astronomy

Jun. 28, 2013 Rise Set
Actual Time 6:01 AM CDT 8:05 PM CDT
Civil Twilight 5:34 AM CDT 8:32 PM CDT
Nautical Twilight 5:00 AM CDT 9:06 PM CDT
Astronomical Twilight 4:25 AM CDT 9:41 PM CDT
Moon No Moon Rise 11:42 AM CDT (6/28)
Length of Visible Light 14h 58m
Length of Day
14h 03m
Waning Gibbous, 66% of the Moon is Illuminated
Jun 28
Waning Gibbous
Jun 29
Last Quarter
Jul 8
New
Jul 15
First Quarter
Jul 22
Full

Hourly Weather History & Observations

Time (CDT) Temp. Heat Index Dew Point Humidity Pressure Visibility Wind Dir Wind Speed Gust Speed Precip Events Conditions
12:53 AM 84.9 °F 95.3 °F 77.0 °F 77% 29.93 in 10.0 mi WSW 10.4 mph - N/A   Clear
1:53 AM 84.0 °F 93.7 °F 77.0 °F 79% 29.94 in 10.0 mi SW 9.2 mph - N/A   Clear
2:53 AM 82.9 °F 91.8 °F 77.0 °F 82% 29.93 in 10.0 mi SW 10.4 mph - N/A   Clear
3:53 AM 82.9 °F 91.8 °F 77.0 °F 82% 29.91 in 10.0 mi SW 11.5 mph - N/A   Clear
4:53 AM 84.0 °F 93.7 °F 77.0 °F 79% 29.91 in 10.0 mi WSW 16.1 mph - N/A   Clear
5:53 AM 84.0 °F 93.7 °F 77.0 °F 79% 29.91 in 10.0 mi West 18.4 mph - N/A   Clear
6:53 AM 84.0 °F 92.6 °F 75.9 °F 76% 29.91 in 10.0 mi West 18.4 mph - N/A   Clear
7:53 AM 84.9 °F 95.3 °F 77.0 °F 77% 29.94 in 10.0 mi WNW 16.1 mph - N/A   Scattered Clouds
8:53 AM 84.9 °F 95.3 °F 77.0 °F 77% 29.94 in 10.0 mi WNW 20.7 mph - N/A   Mostly Cloudy
9:53 AM 86.0 °F 96.9 °F 77.0 °F 74% 29.92 in 10.0 mi WNW 18.4 mph - N/A   Partly Cloudy
10:53 AM 87.1 °F 98.8 °F 77.0 °F 72% 29.92 in 10.0 mi WNW 15.0 mph - N/A   Partly Cloudy
11:53 AM 89.1 °F 101.4 °F 77.0 °F 67% 29.92 in 10.0 mi WNW 11.5 mph - N/A   Partly Cloudy
12:53 PM 90.0 °F 102.5 °F 77.0 °F 65% 29.90 in 10.0 mi WNW 10.4 mph - N/A   Partly Cloudy
1:53 PM 91.0 °F 102.9 °F 75.9 °F 61% 29.87 in 10.0 mi NW 10.4 mph - N/A   Partly Cloudy
2:53 PM 91.9 °F 103.9 °F 75.9 °F 59% 29.85 in 10.0 mi NW 10.4 mph - N/A   Clear
3:53 PM 93.0 °F 105.3 °F 75.9 °F 57% 29.82 in 10.0 mi NW 10.4 mph - N/A   Clear
4:53 PM 93.0 °F 104.6 °F 75.0 °F 56% 29.81 in 10.0 mi NW 10.4 mph - N/A   Clear
5:53 PM 91.9 °F 103.2 °F 75.0 °F 58% 29.80 in 10.0 mi NW 8.1 mph - N/A   Clear
6:53 PM 91.9 °F 101.3 °F 73.9 °F 55% 29.79 in 10.0 mi WNW 9.2 mph - N/A   Clear
7:53 PM 91.0 °F 102.9 °F 75.9 °F 61% 29.77 in 10.0 mi West 10.4 mph - N/A   Clear
8:53 PM 90.0 °F 97.9 °F 73.0 °F 57% 29.78 in 10.0 mi WSW 10.4 mph - N/A   Clear
9:53 PM 87.1 °F 98.8 °F 77.0 °F 72% 29.80 in 10.0 mi SW 9.2 mph - N/A   Clear
10:53 PM 86.0 °F 96.9 °F 77.0 °F 74% 29.82 in 10.0 mi SW 11.5 mph - N/A   Clear
11:53 PM 84.9 °F 94.1 °F 75.9 °F 74% 29.81 in 10.0 mi SW 13.8 mph - N/A   Clear